SWA2931 KLGA-KMDW

Flight info

Callsign SWA2931
Flight time 1h 48m
Altitude 30000
Route NEWEL J60 DJB ASHEN PANGG7
Aircraft B738/M-SDE2E3FGHIRWXY/LB1

Departure

Time 2026-05-06 00:20
Airport LaGuardia Airport (KLGA)

Arrival

Time 2026-05-06 02:09
Airport Chicago Midway International Airport (KMDW)
Time Latitude Longitude Altitude Speed Heading
2026-05-05 23:40 40.77303 -73.86743 21 ft 0 kts 312°
2026-05-06 00:10 40.77302 -73.86741 -9 ft 1 kts 312°
2026-05-06 00:10 40.77291 -73.86725 18 ft 3 kts 312°
2026-05-06 00:10 40.77282 -73.86712 21 ft 3 kts 312°
2026-05-06 00:11 40.77270 -73.86697 19 ft 3 kts 352°
2026-05-06 00:11 40.77256 -73.86701 22 ft 2 kts 41°
2026-05-06 00:11 40.77255 -73.86702 22 ft 2 kts 43°
2026-05-06 00:11 40.77268 -73.86685 19 ft 3 kts 43°
2026-05-06 00:12 40.77283 -73.86667 20 ft 3 kts 43°
2026-05-06 00:12 40.77298 -73.86649 19 ft 3 kts 43°
2026-05-06 00:12 40.77313 -73.86631 19 ft 3 kts 42°
2026-05-06 00:12 40.77328 -73.86614 18 ft 3 kts 39°
2026-05-06 00:13 40.77344 -73.86597 18 ft 3 kts 38°
2026-05-06 00:13 40.77356 -73.86584 19 ft 1 kts 39°
2026-05-06 00:13 40.77357 -73.86584 19 ft 0 kts 39°
2026-05-06 00:15 40.77358 -73.86583 19 ft 1 kts 39°
2026-05-06 00:15 40.77375 -73.86564 17 ft 7 kts 39°
2026-05-06 00:15 40.77461 -73.86573 10 ft 17 kts 359°
2026-05-06 00:16 40.77547 -73.86659 11 ft 17 kts 302°
2026-05-06 00:16 40.77608 -73.86785 11 ft 16 kts 302°
2026-05-06 00:16 40.77666 -73.86906 11 ft 15 kts 302°
2026-05-06 00:16 40.77721 -73.87022 12 ft 15 kts 302°
2026-05-06 00:17 40.77774 -73.87134 12 ft 14 kts 302°
2026-05-06 00:17 40.77826 -73.87241 12 ft 13 kts 302°
2026-05-06 00:17 40.77874 -73.87343 13 ft 13 kts 302°
2026-05-06 00:17 40.77916 -73.87432 14 ft 3 kts 301°
2026-05-06 00:18 40.77922 -73.87443 15 ft 0 kts 302°
2026-05-06 00:18 40.77936 -73.87472 14 ft 9 kts 302°
2026-05-06 00:18 40.77987 -73.87581 14 ft 19 kts 302°
2026-05-06 00:19 40.78064 -73.87741 16 ft 21 kts 301°
2026-05-06 00:19 40.78138 -73.87854 26 ft 15 kts 337°
2026-05-06 00:19 40.78208 -73.87806 18 ft 15 kts 108°
2026-05-06 00:19 40.78138 -73.87660 35 ft 33 kts 122°
2026-05-06 00:20 40.77876 -73.87111 13 ft 106 kts 122°
2026-05-06 00:20 40.77371 -73.86068 166 ft 151 kts 124°
2026-05-06 00:20 40.76825 -73.84777 657 ft 171 kts 125°
2026-05-06 00:20 40.76013 -73.83688 1379 ft 164 kts 162°
2026-05-06 00:21 40.74987 -73.83153 2251 ft 162 kts 168°
2026-05-06 00:21 40.73913 -73.82571 2940 ft 171 kts 168°
2026-05-06 00:21 40.72777 -73.82066 3613 ft 170 kts 187°
2026-05-06 00:21 40.71713 -73.82499 4298 ft 160 kts 226°
2026-05-06 00:22 40.71203 -73.83779 4834 ft 171 kts 261°
2026-05-06 00:22 40.71494 -73.85418 4994 ft 207 kts 293°
2026-05-06 00:22 40.72187 -73.87185 4983 ft 220 kts 278°
2026-05-06 00:22 40.72432 -73.89174 5020 ft 228 kts 274°
2026-05-06 00:23 40.72699 -73.91314 5498 ft 241 kts 276°
2026-05-06 00:23 40.72997 -73.93494 6369 ft 242 kts 277°
2026-05-06 00:23 40.73314 -73.95700 7207 ft 246 kts 277°
2026-05-06 00:23 40.73646 -73.97942 7942 ft 252 kts 278°
2026-05-06 00:24 40.73991 -74.00216 8720 ft 256 kts 278°
2026-05-06 00:24 40.74351 -74.02547 9496 ft 262 kts 279°
2026-05-06 00:24 40.74720 -74.04914 10269 ft 266 kts 279°
2026-05-06 00:24 40.75103 -74.07354 10526 ft 288 kts 279°
2026-05-06 00:25 40.75530 -74.10075 10718 ft 311 kts 279°
2026-05-06 00:25 40.75983 -74.12936 10894 ft 333 kts 279°
2026-05-06 00:25 40.76470 -74.16001 11224 ft 348 kts 280°
2026-05-06 00:25 40.76974 -74.19152 11832 ft 353 kts 280°
2026-05-06 00:26 40.77491 -74.22379 12535 ft 356 kts 280°
2026-05-06 00:26 40.78004 -74.25591 13232 ft 359 kts 280°
2026-05-06 00:26 40.78521 -74.28829 13875 ft 363 kts 280°
2026-05-06 00:26 40.79042 -74.32102 14477 ft 366 kts 280°
2026-05-06 00:27 40.79567 -74.35412 15051 ft 370 kts 279°
2026-05-06 00:27 40.80087 -74.38696 15743 ft 371 kts 279°
2026-05-06 00:27 40.80615 -74.42038 16324 ft 374 kts 279°
2026-05-06 00:27 40.81148 -74.45426 16842 ft 379 kts 279°
2026-05-06 00:28 40.81686 -74.48847 17352 ft 384 kts 278°
2026-05-06 00:28 40.82230 -74.52317 17877 ft 388 kts 278°
2026-05-06 00:28 40.82778 -74.55818 18384 ft 391 kts 278°
2026-05-06 00:28 40.83332 -74.59353 18859 ft 394 kts 278°
2026-05-06 00:29 40.83886 -74.62902 19346 ft 397 kts 278°
2026-05-06 00:29 40.84444 -74.66485 19818 ft 400 kts 278°
2026-05-06 00:29 40.85005 -74.70095 20275 ft 403 kts 278°
2026-05-06 00:29 40.85569 -74.73737 20724 ft 406 kts 278°
2026-05-06 00:30 40.86137 -74.77411 21166 ft 409 kts 278°
2026-05-06 00:30 40.86707 -74.81102 21599 ft 412 kts 278°
2026-05-06 00:30 40.87279 -74.84815 22029 ft 414 kts 278°
2026-05-06 00:30 40.87855 -74.88563 22453 ft 417 kts 278°
2026-05-06 00:31 40.88433 -74.92336 22848 ft 420 kts 278°
2026-05-06 00:31 40.89013 -74.96128 23242 ft 423 kts 278°
2026-05-06 00:31 40.89597 -74.99952 23602 ft 425 kts 278°
2026-05-06 00:31 40.90182 -75.03789 23958 ft 427 kts 278°
2026-05-06 00:32 40.90769 -75.07651 24334 ft 429 kts 278°
2026-05-06 00:32 40.91347 -75.11524 24690 ft 429 kts 276°
2026-05-06 00:32 40.91602 -75.15445 25016 ft 428 kts 267°
2026-05-06 00:32 40.91415 -75.19358 25369 ft 427 kts 261°
2026-05-06 00:33 40.90843 -75.23203 25697 ft 427 kts 252°
2026-05-06 00:33 40.89946 -75.26958 26032 ft 428 kts 251°
2026-05-06 00:33 40.89023 -75.30712 26334 ft 430 kts 251°
2026-05-06 00:33 40.88126 -75.34438 26704 ft 430 kts 252°
2026-05-06 00:34 40.87238 -75.38195 27179 ft 428 kts 252°
2026-05-06 00:34 40.86359 -75.41940 27683 ft 425 kts 252°
2026-05-06 00:34 40.85484 -75.45653 28203 ft 422 kts 252°
2026-05-06 00:34 40.84608 -75.49354 28647 ft 421 kts 252°
2026-05-06 00:35 40.83734 -75.53039 29010 ft 421 kts 252°
2026-05-06 00:35 40.82859 -75.56723 29408 ft 421 kts 252°
2026-05-06 00:35 40.81982 -75.60408 29826 ft 420 kts 252°
2026-05-06 00:36 40.80213 -75.67829 29821 ft 424 kts 252°
2026-05-06 00:36 40.78458 -75.75171 29833 ft 417 kts 252°
2026-05-06 00:37 40.76702 -75.82493 29836 ft 419 kts 253°
2026-05-06 00:37 40.74937 -75.89833 29834 ft 420 kts 253°
2026-05-06 00:38 40.73166 -75.97174 29846 ft 420 kts 253°
2026-05-06 00:38 40.71386 -76.04525 29855 ft 420 kts 253°
2026-05-06 00:39 40.69617 -76.11817 29866 ft 420 kts 253°
2026-05-06 00:39 40.67869 -76.19157 29889 ft 419 kts 257°
2026-05-06 00:40 40.67314 -76.26748 29894 ft 416 kts 270°
2026-05-06 00:40 40.68102 -76.34288 29902 ft 415 kts 280°
2026-05-06 00:41 40.69255 -76.41743 29901 ft 414 kts 280°
2026-05-06 00:41 40.70389 -76.49175 29899 ft 414 kts 279°
2026-05-06 00:42 40.71500 -76.56612 29881 ft 413 kts 279°
2026-05-06 00:42 40.72596 -76.64042 29865 ft 413 kts 279°
2026-05-06 00:43 40.73685 -76.71474 29851 ft 413 kts 279°
2026-05-06 00:43 40.74769 -76.78898 29834 ft 412 kts 279°
2026-05-06 00:44 40.75842 -76.86285 29813 ft 413 kts 279°
2026-05-06 00:44 40.76918 -76.93723 29824 ft 413 kts 279°
2026-05-06 00:45 40.77988 -77.01161 29830 ft 412 kts 279°
2026-05-06 00:45 40.79053 -77.08597 29820 ft 412 kts 279°
2026-05-06 00:46 40.80112 -77.16027 29822 ft 412 kts 278°
2026-05-06 00:46 40.81166 -77.23455 29843 ft 412 kts 278°
2026-05-06 00:47 40.82215 -77.30887 29829 ft 412 kts 278°
2026-05-06 00:47 40.83261 -77.38324 29827 ft 412 kts 278°
2026-05-06 00:48 40.84301 -77.45763 29825 ft 412 kts 278°
2026-05-06 00:48 40.85335 -77.53203 29837 ft 412 kts 278°
2026-05-06 00:49 40.86365 -77.60650 29853 ft 412 kts 278°
2026-05-06 00:49 40.87386 -77.68065 29836 ft 413 kts 278°
2026-05-06 00:50 40.88407 -77.75523 29836 ft 413 kts 278°
2026-05-06 00:50 40.89428 -77.83013 29850 ft 413 kts 278°
2026-05-06 00:51 40.90441 -77.90484 29853 ft 413 kts 278°
2026-05-06 00:51 40.91451 -77.97967 29861 ft 413 kts 278°
2026-05-06 00:52 40.92084 -78.02796 29852 ft 412 kts 277°
2026-05-06 00:52 40.93006 -78.10273 29847 ft 411 kts 277°
2026-05-06 00:53 40.93917 -78.17730 29850 ft 411 kts 277°
2026-05-06 00:53 40.94830 -78.25184 29859 ft 410 kts 277°
2026-05-06 00:54 40.95740 -78.32634 29854 ft 410 kts 277°
2026-05-06 00:54 40.96646 -78.40078 29863 ft 409 kts 277°
2026-05-06 00:55 40.97544 -78.47516 29866 ft 409 kts 277°
2026-05-06 00:55 40.98432 -78.54914 29859 ft 410 kts 277°
2026-05-06 00:56 40.99322 -78.62367 29860 ft 410 kts 277°
2026-05-06 00:56 41.00063 -78.68612 29864 ft 410 kts 277°
2026-05-06 00:57 41.00946 -78.76084 29856 ft 411 kts 277°
2026-05-06 00:57 41.01828 -78.83587 29849 ft 412 kts 277°
2026-05-06 00:58 41.02705 -78.91100 29868 ft 413 kts 276°
2026-05-06 00:58 41.03570 -78.98571 29858 ft 413 kts 276°
2026-05-06 00:59 41.04442 -79.06106 29844 ft 414 kts 276°
2026-05-06 00:59 41.05309 -79.13654 29841 ft 415 kts 276°
2026-05-06 01:00 41.06172 -79.21210 29835 ft 415 kts 276°
2026-05-06 01:00 41.07029 -79.28770 29853 ft 415 kts 276°
2026-05-06 01:01 41.07882 -79.36337 29842 ft 415 kts 276°
2026-05-06 01:01 41.08731 -79.43912 29866 ft 415 kts 277°
2026-05-06 01:02 41.09575 -79.51480 29842 ft 414 kts 277°
2026-05-06 01:02 41.10409 -79.59021 29853 ft 413 kts 277°
2026-05-06 01:03 41.11237 -79.66548 29848 ft 412 kts 277°
2026-05-06 01:03 41.12058 -79.74053 29853 ft 411 kts 276°
2026-05-06 01:04 41.12872 -79.81547 29878 ft 410 kts 277°
2026-05-06 01:04 41.13678 -79.89006 29861 ft 407 kts 277°
2026-05-06 01:05 41.14467 -79.96353 29847 ft 404 kts 277°
2026-05-06 01:05 41.15250 -80.03696 29862 ft 401 kts 277°
2026-05-06 01:06 41.16025 -80.11007 29870 ft 399 kts 277°
2026-05-06 01:06 41.16794 -80.18302 29899 ft 399 kts 277°
2026-05-06 01:07 41.17555 -80.25583 29874 ft 399 kts 277°
2026-05-06 01:07 41.18314 -80.32884 29863 ft 398 kts 277°
2026-05-06 01:08 41.19068 -80.40170 29866 ft 397 kts 277°
2026-05-06 01:08 41.19814 -80.47435 29864 ft 397 kts 277°
2026-05-06 01:09 41.20555 -80.54706 29883 ft 397 kts 277°
2026-05-06 01:09 41.21292 -80.61980 29862 ft 397 kts 276°
2026-05-06 01:10 41.22025 -80.69255 29865 ft 397 kts 276°
2026-05-06 01:10 41.22752 -80.76523 29857 ft 397 kts 276°
2026-05-06 01:11 41.23474 -80.83782 29863 ft 396 kts 276°
2026-05-06 01:11 41.24190 -80.91038 29872 ft 396 kts 276°
2026-05-06 01:12 41.24902 -80.98294 29855 ft 396 kts 276°
2026-05-06 01:12 41.25605 -81.05504 29858 ft 396 kts 276°
2026-05-06 01:13 41.26306 -81.12750 29860 ft 397 kts 276°
2026-05-06 01:13 41.26930 -81.19231 29874 ft 397 kts 276°
2026-05-06 01:14 41.27811 -81.28461 29880 ft 397 kts 275°
2026-05-06 01:14 41.28504 -81.35769 29861 ft 397 kts 275°
2026-05-06 01:15 41.29174 -81.42893 29858 ft 397 kts 275°
2026-05-06 01:15 41.29845 -81.50054 29882 ft 396 kts 275°
2026-05-06 01:16 41.30500 -81.57105 29878 ft 396 kts 275°
2026-05-06 01:16 41.31169 -81.64375 29870 ft 395 kts 275°
2026-05-06 01:17 41.31833 -81.71638 29866 ft 394 kts 275°
2026-05-06 01:17 41.32490 -81.78869 29859 ft 394 kts 275°
2026-05-06 01:18 41.33142 -81.86102 29858 ft 393 kts 275°
2026-05-06 01:18 41.33789 -81.93330 29859 ft 393 kts 275°
2026-05-06 01:19 41.34431 -82.00553 29881 ft 392 kts 275°
2026-05-06 01:19 41.35038 -82.07419 29880 ft 392 kts 275°
2026-05-06 01:20 41.35671 -82.14634 29878 ft 392 kts 275°
2026-05-06 01:20 41.36203 -82.21804 29879 ft 392 kts 273°
2026-05-06 01:21 41.36603 -82.28947 29881 ft 393 kts 272°
2026-05-06 01:21 41.37003 -82.36181 29879 ft 393 kts 273°
2026-05-06 01:22 41.37414 -82.43443 29889 ft 394 kts 272°
2026-05-06 01:22 41.37828 -82.50696 29882 ft 394 kts 272°
2026-05-06 01:23 41.38241 -82.57986 29884 ft 394 kts 272°
2026-05-06 01:23 41.38641 -82.65096 29885 ft 394 kts 272°
2026-05-06 01:24 41.39044 -82.72352 29885 ft 394 kts 272°
2026-05-06 01:24 41.39443 -82.79623 29905 ft 394 kts 272°
2026-05-06 01:25 41.39838 -82.86894 29887 ft 393 kts 272°
2026-05-06 01:25 41.40228 -82.94166 29885 ft 393 kts 272°
2026-05-06 01:26 41.40612 -83.01418 29890 ft 392 kts 272°
2026-05-06 01:26 41.40990 -83.08647 29888 ft 392 kts 272°
2026-05-06 01:27 41.41363 -83.15842 29900 ft 391 kts 272°
2026-05-06 01:27 41.41734 -83.23121 29888 ft 391 kts 272°
2026-05-06 01:28 41.42097 -83.30305 29887 ft 390 kts 272°
2026-05-06 01:28 41.42456 -83.37504 29886 ft 389 kts 272°
2026-05-06 01:29 41.42810 -83.44709 29892 ft 389 kts 272°
2026-05-06 01:29 41.43159 -83.51895 29885 ft 389 kts 272°
2026-05-06 01:30 41.43505 -83.59095 29889 ft 389 kts 272°
2026-05-06 01:30 41.43844 -83.66274 29888 ft 389 kts 272°
2026-05-06 01:31 41.44181 -83.73486 29887 ft 389 kts 272°
2026-05-06 01:31 41.44513 -83.80683 29883 ft 389 kts 272°
2026-05-06 01:32 41.44840 -83.87891 29883 ft 389 kts 272°
2026-05-06 01:32 41.45163 -83.95101 29884 ft 390 kts 271°
2026-05-06 01:33 41.45482 -84.02319 29885 ft 390 kts 271°
2026-05-06 01:33 41.45797 -84.09547 29890 ft 391 kts 271°
2026-05-06 01:34 41.46108 -84.16784 29888 ft 391 kts 271°
2026-05-06 01:34 41.46412 -84.23970 29893 ft 391 kts 271°
2026-05-06 01:35 41.46713 -84.31192 29899 ft 391 kts 271°
2026-05-06 01:35 41.47011 -84.38448 29602 ft 390 kts 271°
2026-05-06 01:36 41.47156 -84.42030 29333 ft 385 kts 271°
2026-05-06 01:36 41.47299 -84.45577 29053 ft 382 kts 271°
2026-05-06 01:36 41.47441 -84.49112 28784 ft 381 kts 271°
2026-05-06 01:36 41.47580 -84.52634 28516 ft 381 kts 271°
2026-05-06 01:37 41.47719 -84.56161 28251 ft 380 kts 271°
2026-05-06 01:37 41.47857 -84.59687 27997 ft 380 kts 271°
2026-05-06 01:37 41.47993 -84.63193 27925 ft 379 kts 271°
2026-05-06 01:37 41.48129 -84.66706 27803 ft 378 kts 271°
2026-05-06 01:38 41.48269 -84.70180 27633 ft 373 kts 270°
2026-05-06 01:38 41.48409 -84.73624 27464 ft 372 kts 270°
2026-05-06 01:38 41.48548 -84.77086 27295 ft 373 kts 270°
2026-05-06 01:38 41.48685 -84.80534 27122 ft 373 kts 270°
2026-05-06 01:39 41.48821 -84.83986 26968 ft 373 kts 270°
2026-05-06 01:39 41.48956 -84.87439 26803 ft 372 kts 270°
2026-05-06 01:39 41.49089 -84.90845 26649 ft 372 kts 270°
2026-05-06 01:39 41.49221 -84.94290 26483 ft 372 kts 270°
2026-05-06 01:40 41.49353 -84.97729 26322 ft 371 kts 270°
2026-05-06 01:40 41.49483 -85.01159 26161 ft 370 kts 270°
2026-05-06 01:40 41.49612 -85.04592 26003 ft 370 kts 270°
2026-05-06 01:40 41.49740 -85.08011 25862 ft 369 kts 270°
2026-05-06 01:41 41.49866 -85.11420 25691 ft 368 kts 270°
2026-05-06 01:41 41.49990 -85.14820 25534 ft 366 kts 270°
2026-05-06 01:41 41.50114 -85.18205 25376 ft 365 kts 270°
2026-05-06 01:41 41.50236 -85.21581 25220 ft 363 kts 269°
2026-05-06 01:42 41.50356 -85.24947 25071 ft 363 kts 269°
2026-05-06 01:42 41.50475 -85.28302 24917 ft 363 kts 269°
2026-05-06 01:42 41.50593 -85.31659 24771 ft 362 kts 269°
2026-05-06 01:42 41.50711 -85.35015 24615 ft 362 kts 269°
2026-05-06 01:43 41.50827 -85.38360 24461 ft 361 kts 269°
2026-05-06 01:43 41.50942 -85.41704 24302 ft 360 kts 269°
2026-05-06 01:43 41.51018 -85.43916 24207 ft 360 kts 269°
2026-05-06 01:43 41.51131 -85.47249 24047 ft 359 kts 269°
2026-05-06 01:44 41.51242 -85.50576 23845 ft 360 kts 269°
2026-05-06 01:44 41.51354 -85.53938 23333 ft 363 kts 269°
2026-05-06 01:44 41.51465 -85.57286 22798 ft 358 kts 269°
2026-05-06 01:44 41.51573 -85.60580 22297 ft 353 kts 269°
2026-05-06 01:45 41.51667 -85.63827 21824 ft 349 kts 268°
2026-05-06 01:45 41.51737 -85.67061 21362 ft 348 kts 268°
2026-05-06 01:45 41.51799 -85.70281 20896 ft 347 kts 268°
2026-05-06 01:45 41.51861 -85.73496 20450 ft 346 kts 268°
2026-05-06 01:46 41.51923 -85.76711 20002 ft 347 kts 268°
2026-05-06 01:46 41.51985 -85.79926 19542 ft 347 kts 268°
2026-05-06 01:46 41.52048 -85.83146 19089 ft 348 kts 268°
2026-05-06 01:46 41.52111 -85.86380 18645 ft 348 kts 268°
2026-05-06 01:47 41.52174 -85.89618 18154 ft 350 kts 268°
2026-05-06 01:47 41.52236 -85.92862 17640 ft 349 kts 268°
2026-05-06 01:47 41.52297 -85.96090 17146 ft 347 kts 268°
2026-05-06 01:47 41.52357 -85.99303 16676 ft 345 kts 269°
2026-05-06 01:48 41.52416 -86.02492 16215 ft 341 kts 269°
2026-05-06 01:48 41.52473 -86.05640 15770 ft 337 kts 269°
2026-05-06 01:48 41.52515 -86.08753 15335 ft 334 kts 268°
2026-05-06 01:48 41.52511 -86.11835 14900 ft 330 kts 268°
2026-05-06 01:49 41.52490 -86.14881 14468 ft 328 kts 268°
2026-05-06 01:49 41.52468 -86.17918 14045 ft 326 kts 268°
2026-05-06 01:49 41.52446 -86.21378 13537 ft 323 kts 269°
2026-05-06 01:49 41.52428 -86.24365 13080 ft 321 kts 268°
2026-05-06 01:50 41.52412 -86.27325 12713 ft 317 kts 268°
2026-05-06 01:50 41.52398 -86.30026 12322 ft 315 kts 268°
2026-05-06 01:50 41.52382 -86.32898 11914 ft 313 kts 268°
2026-05-06 01:50 41.52365 -86.35806 11498 ft 312 kts 268°
2026-05-06 01:51 41.52347 -86.38701 11091 ft 311 kts 268°
2026-05-06 01:51 41.52329 -86.41553 10900 ft 302 kts 268°
2026-05-06 01:51 41.52311 -86.44311 10724 ft 293 kts 268°
2026-05-06 01:51 41.52293 -86.46994 10571 ft 284 kts 268°
2026-05-06 01:52 41.52275 -86.49596 10424 ft 276 kts 268°
2026-05-06 01:52 41.52256 -86.52121 10284 ft 269 kts 267°
2026-05-06 01:52 41.52238 -86.54576 10143 ft 261 kts 267°
2026-05-06 01:52 41.52219 -86.56960 10024 ft 254 kts 268°
2026-05-06 01:53 41.52200 -86.59295 9872 ft 248 kts 267°
2026-05-06 01:53 41.52182 -86.61567 9720 ft 244 kts 267°
2026-05-06 01:53 41.52162 -86.63834 9565 ft 244 kts 268°
2026-05-06 01:53 41.52143 -86.66106 9409 ft 245 kts 268°
2026-05-06 01:54 41.52123 -86.68355 9247 ft 246 kts 268°
2026-05-06 01:54 41.52102 -86.70642 9092 ft 248 kts 268°
2026-05-06 01:54 41.52081 -86.72961 8948 ft 250 kts 268°
2026-05-06 01:54 41.52059 -86.75281 8780 ft 251 kts 268°
2026-05-06 01:55 41.52038 -86.77611 8624 ft 252 kts 269°
2026-05-06 01:55 41.52015 -86.79947 8464 ft 253 kts 269°
2026-05-06 01:55 41.51993 -86.82296 8306 ft 253 kts 269°
2026-05-06 01:55 41.51970 -86.84656 8147 ft 254 kts 269°
2026-05-06 01:56 41.51945 -86.87013 7976 ft 253 kts 269°
2026-05-06 01:56 41.51921 -86.89338 7812 ft 248 kts 269°
2026-05-06 01:56 41.51896 -86.91615 7645 ft 244 kts 269°
2026-05-06 01:56 41.51871 -86.93877 7509 ft 244 kts 270°
2026-05-06 01:57 41.51845 -86.96148 7345 ft 246 kts 270°
2026-05-06 01:57 41.51819 -86.98442 7200 ft 248 kts 271°
2026-05-06 01:57 41.51793 -87.00765 7055 ft 252 kts 271°
2026-05-06 01:57 41.51765 -87.03108 6879 ft 254 kts 271°
2026-05-06 01:58 41.51737 -87.05479 6733 ft 257 kts 271°
2026-05-06 01:58 41.51708 -87.07864 6565 ft 257 kts 271°
2026-05-06 01:58 41.51679 -87.10233 6407 ft 254 kts 271°
2026-05-06 01:58 41.51648 -87.12546 6231 ft 251 kts 272°
2026-05-06 01:59 41.51620 -87.14906 6084 ft 251 kts 273°
2026-05-06 01:59 41.51905 -87.17133 6032 ft 246 kts 293°
2026-05-06 01:59 41.52542 -87.19234 6021 ft 243 kts 294°
2026-05-06 01:59 41.53190 -87.21365 6033 ft 247 kts 293°
2026-05-06 02:00 41.53826 -87.23482 6026 ft 251 kts 292°
2026-05-06 02:00 41.54469 -87.25641 6023 ft 250 kts 292°
2026-05-06 02:00 41.55106 -87.27791 6001 ft 248 kts 292°
2026-05-06 02:00 41.55738 -87.29932 6020 ft 247 kts 292°
2026-05-06 02:01 41.56364 -87.32059 6031 ft 241 kts 292°
2026-05-06 02:01 41.56950 -87.34065 6009 ft 224 kts 293°
2026-05-06 02:01 41.57496 -87.35930 5990 ft 207 kts 293°
2026-05-06 02:01 41.58002 -87.37660 6006 ft 197 kts 294°
2026-05-06 02:02 41.58503 -87.39369 5909 ft 199 kts 294°
2026-05-06 02:02 41.59007 -87.41086 5793 ft 198 kts 294°
2026-05-06 02:02 41.59509 -87.42800 5680 ft 199 kts 294°
2026-05-06 02:02 41.60019 -87.44543 5590 ft 203 kts 294°
2026-05-06 02:03 41.60536 -87.46313 5480 ft 206 kts 294°
2026-05-06 02:03 41.61055 -87.48092 5336 ft 205 kts 294°
2026-05-06 02:03 41.61570 -87.49857 5198 ft 204 kts 294°
2026-05-06 02:03 41.62084 -87.51619 5074 ft 203 kts 294°
2026-05-06 02:04 41.62844 -87.53167 4958 ft 201 kts 318°
2026-05-06 02:04 41.63870 -87.54465 4701 ft 205 kts 315°
2026-05-06 02:04 41.64841 -87.55861 4417 ft 204 kts 314°
2026-05-06 02:04 41.65798 -87.57236 4140 ft 200 kts 314°
2026-05-06 02:05 41.66741 -87.58577 3863 ft 196 kts 314°
2026-05-06 02:05 41.67660 -87.59876 3602 ft 192 kts 314°
2026-05-06 02:05 41.68534 -87.61112 3363 ft 179 kts 314°
2026-05-06 02:05 41.69376 -87.62302 3114 ft 174 kts 314°
2026-05-06 02:06 41.70216 -87.63489 2882 ft 174 kts 314°
2026-05-06 02:06 41.71039 -87.64652 2651 ft 176 kts 314°
2026-05-06 02:06 41.71878 -87.65837 2435 ft 167 kts 314°
2026-05-06 02:06 41.72633 -87.66904 2206 ft 152 kts 314°
2026-05-06 02:07 41.73338 -87.67900 2010 ft 146 kts 315°
2026-05-06 02:07 41.74042 -87.68883 1835 ft 145 kts 314°
2026-05-06 02:07 41.74745 -87.69875 1609 ft 147 kts 313°
2026-05-06 02:07 41.75436 -87.70877 1409 ft 146 kts 312°
2026-05-06 02:08 41.76137 -87.71874 1231 ft 148 kts 313°
2026-05-06 02:08 41.76853 -87.72878 1022 ft 149 kts 314°
2026-05-06 02:08 41.77569 -87.73885 795 ft 149 kts 313°
2026-05-06 02:08 41.78039 -87.74545 655 ft 148 kts 313°
2026-05-06 02:09 41.78695 -87.75455 629 ft 108 kts 313°
2026-05-06 02:09 41.79025 -87.75918 619 ft 31 kts 315°
2026-05-06 02:09 41.79149 -87.76064 623 ft 10 kts
2026-05-06 02:09 41.79208 -87.76014 618 ft 12 kts 62°
2026-05-06 02:10 41.79212 -87.75896 621 ft 14 kts 89°
2026-05-06 02:10 41.79206 -87.75768 626 ft 14 kts 116°
2026-05-06 02:10 41.79134 -87.75657 615 ft 18 kts 135°
2026-05-06 02:10 41.79042 -87.75527 622 ft 20 kts 133°
2026-05-06 02:11 41.78950 -87.75396 613 ft 19 kts 133°
2026-05-06 02:11 41.78861 -87.75271 613 ft 18 kts 133°
2026-05-06 02:11 41.78775 -87.75151 612 ft 18 kts 133°
2026-05-06 02:11 41.78693 -87.75035 614 ft 17 kts 134°
2026-05-06 02:12 41.78614 -87.74925 625 ft 16 kts 134°
2026-05-06 02:12 41.78645 -87.74809 619 ft 16 kts 39°
2026-05-06 02:12 41.78735 -87.74738 628 ft 15 kts 43°
2026-05-06 02:12 41.78731 -87.74701 622 ft 3 kts 129°
2026-05-06 02:13 41.78713 -87.74678 620 ft 0 kts 136°